This is the latest recevied weather packets stored in our database for station/object DO7CRZ-10. If no packets are shown the sender has not sent any weather packets the latest 10 day(s).
| Time | Temp. | Humidity | Pressure | Rain* | Wind** | Luminosity | Snow |
|---|---|---|---|---|---|---|---|
| 1777262284 | 2.78° C | 55% | 1023 hPa | - | - | - | - |
| 1777260538 | 1.67° C | 58% | 1023 hPa | - | - | - | - |
| 1777258792 | 1.67° C | 58% | 1023 hPa | - | - | - | - |
| 1777257046 | 2.22° C | 51% | 1023 hPa | - | - | - | - |
| 1777255300 | 2.78° C | 51% | 1023 hPa | - | - | - | - |
| 1777253555 | 3.33° C | 49% | 1023 hPa | - | - | - | - |
| 1777251809 | 3.89° C | 47% | 1023 hPa | - | - | - | - |
| 1777250063 | 3.89° C | 47% | 1023 hPa | - | - | - | - |
| 1777248317 | 5° C | 46% | 1023 hPa | - | - | - | - |
| 1777246571 | 5° C | 46% | 1023 hPa | - | - | - | - |
| 1777244825 | 5° C | 46% | 1023 hPa | - | - | - | - |
| 1777243080 | 5.56° C | 46% | 1023 hPa | - | - | - | - |
| 1777241334 | 5.56° C | 45% | 1023 hPa | - | - | - | - |
| 1777239588 | 6.11° C | 45% | 1023 hPa | - | - | - | - |
| 1777237842 | 7.22° C | 44% | 1023 hPa | - | - | - | - |
| 1777236096 | 8.33° C | 43% | 1023 hPa | - | - | - | - |
| 1777234350 | 8.33° C | 44% | 1023 hPa | - | - | - | - |
| 1777232605 | 9.44° C | 43% | 1023 hPa | - | - | - | - |
| 1777230859 | 10° C | 43% | 1023 hPa | - | - | - | - |
| 1777229113 | 10.56° C | 42% | 1023 hPa | - | - | - | - |
| 1777227367 | 11.11° C | 41% | 1023 hPa | - | - | - | - |
| 1777225621 | 12.78° C | 39% | 1022 hPa | - | - | - | - |
| 1777223875 | 13.89° C | 40% | 1022 hPa | - | - | - | - |
| 1777222129 | 15° C | 38% | 1022 hPa | - | - | - | - |
| 1777220384 | 15° C | 38% | 1022 hPa | - | - | - | - |
* Rain since midnight (hover to see other rain measurements)
** Current wind speed in m/s (hover to see current wind gust speed)